User: anonymous   Login
Location: Owatonna
(44.0840°N, 93.2260°W)
Time: 15:04:52
(UTC-05:00)
Language:

ALOS - Orbit

View from above orbital plane
View from above orbital plane
View from above satellite
View from above satellite

Ground track
Ground track

The orbit data is extracted from the following two-line orbital elements,

1 28931U 06002A   16147.93371881 +.00000116 +00000-0 +31838-4 0  9995
2 28931 097.8866 187.6843 0002732 093.8337 266.3178 14.62190566551018
Epoch (UTC): 26 May 2016 22:24:33
Eccentricity: 0.0002732
inclination: 97.8866°
perigee height: 684 km
apogee height: 688 km
right ascension of ascending node: 187.6843°
argument of perigee: 93.8337°
revolutions per day: 14.62190566
mean anomaly at epoch: 266.3178°
orbit number at epoch: 55101

The dashed part of the orbit path shows where the satellite is in the earth's shadow,  

DLR